Flag for Russia Weather past 2 weeks in Irkutsk, Russia

18 °F

Snow flurries. Low clouds.

Feels Like: 9 °F
Forecast: 5 / 19 °F
Wind: 6 mph from South

Location: Irkutsk Airport

Current Time: Nov 26, 2015 at 9:25:28 AM

Latest Report: Nov 26, 2015 at 8:30 AM

Visibility: 1 mi

Pressure: 29.98 "Hg

Humidity: 86%

Dew point: 14 °F

Location of IrkutskLocation

Historic Weather in Irkutsk — Graph


Irkutsk temperature yesterday

Maximum temperature yesterday: 19 °F (at 1:30 PM)
Minimum temperature yesterday: -15 °F (at 12:30 AM)
Average temperature yesterday: 8 °F

Past Weeks' High & Low Weather Summary

High21 °F (Nov 11, 1:30 PM)100% (Nov 11, 5:00 PM)30.69 "Hg (Nov 11, 5:00 PM)
Low-26 °F (Nov 21, 4:00 AM)62% (Nov 25, 1:00 PM)29.89 "Hg (Nov 26, 2:30 AM)
Average-1 °F79%30.38 "Hg
* Reported Nov 11 8:00 AM — Nov 26 8:00 AM, Irkutsk, Weather by CustomWeather, © 2015

Note: Actual official high and low records may vary slightly from our data, if they occured in-between our weather recording intervals... More about our weather records


Irkutsk weather history for previous 24 hours

Time TempWeatherWind HumidityBarometerVisibility
8:00 AM
Thu, Nov 26
16 °FSnow. Low clouds.3 mph93%29.95 "Hg1 mi
7:00 AM14 °FSnow flurries. Overcast.1 mph85%29.95 "HgN/A
6:30 AM18 °FSnow flurries. Overcast.1 mph79%29.92 "Hg2 mi
6:00 AM16 °FPassing clouds.3 mph79%29.92 "HgN/A
5:30 AM16 °FPassing clouds.3 mph79%29.92 "HgN/A
5:00 AM14 °FClear.6 mph73%29.89 "Hg10 mi
4:30 AM16 °FClear.6 mph79%29.89 "Hg10 mi
4:00 AM16 °FClear.6 mph79%29.89 "Hg10 mi
3:30 AM16 °FPassing clouds.6 mph73%29.89 "HgN/A
3:00 AM16 °FClear.10 mph73%29.89 "Hg10 mi
2:30 AM16 °FClear.10 mph73%29.89 "Hg10 mi
2:00 AM16 °FClear.8 mph73%29.92 "Hg10 mi
1:30 AM16 °FClear.8 mph73%29.92 "Hg10 mi
1:00 AM9 °FClear.10 mph78%29.95 "Hg10 mi
12:30 AM10 °FClear.10 mph79%29.95 "Hg10 mi
12:00 AM10 °FClear.6 mph79%29.98 "Hg10 mi
11:30 PM
Wed, Nov 25
10 °FClear.6 mph79%29.98 "Hg10 mi
11:00 PM10 °FClear.8 mph79%29.98 "Hg10 mi
10:30 PM10 °FClear.8 mph72%30.01 "Hg10 mi
10:00 PM9 °FClear.8 mph78%30.01 "Hg10 mi
9:30 PM9 °FClear.10 mph78%30.01 "Hg10 mi
9:00 PM10 °FClear.6 mph67%30.04 "Hg10 mi
8:30 PM14 °FClear.8 mph67%30.04 "Hg10 mi
8:00 PM14 °FClear.8 mph67%30.07 "Hg10 mi
7:30 PM14 °FClear.10 mph67%30.07 "Hg10 mi
7:00 PM14 °FClear.10 mph67%30.09 "Hg10 mi
6:30 PM14 °FClear.8 mph73%30.12 "Hg10 mi
6:00 PM16 °FClear.10 mph73%30.12 "Hg10 mi
5:30 PM18 °FSunny.13 mph73%30.12 "Hg10 mi
5:00 PM18 °FSunny.13 mph73%30.12 "Hg10 mi
4:30 PM18 °FSunny.10 mph73%30.12 "Hg10 mi
4:00 PM18 °FSunny.10 mph73%30.12 "Hg10 mi
3:30 PM19 °FSunny.10 mph68%30.12 "Hg10 mi
3:00 PM19 °FSunny.10 mph68%30.12 "Hg10 mi
2:30 PM19 °FSunny.13 mph68%30.12 "Hg10 mi
2:00 PM19 °FSunny.10 mph63%30.12 "Hg10 mi
1:30 PM19 °FSunny.10 mph63%30.15 "Hg10 mi
1:00 PM18 °FSunny.6 mph62%30.15 "Hg10 mi
12:30 PM14 °FSunny.6 mph67%30.15 "Hg10 mi
12:00 PM12 °FSunny.8 mph67%30.18 "Hg10 mi
11:30 AM12 °FSunny.3 mph67%30.18 "Hg10 mi
11:00 AM10 °FSunny.6 mph72%30.15 "Hg10 mi
10:30 AM9 °FSunny.8 mph85%30.15 "Hg10 mi
10:00 AM7 °FSunny.8 mph85%30.15 "Hg10 mi
9:30 AM7 °FClear.8 mph85%30.15 "Hg10 mi
9:00 AM7 °FClear.10 mph85%30.15 "Hg10 mi
Weather by CustomWeather, © 2015

See weather overviewHow to use our weather pages